MAYA-1 (43590 NORAD) Tracking and Keplerian Element Data

This shows tracking and keplerian element data for the satellite.

Feedback or suggestion? Click here.




ElementValue
Catalog43590
NameMAYA-1
Epoch Orbit13058
Epoch Day324.88139739
Epoch Year2020
RAAN192.249
Inclination51.6106
Eccentricity0.0007498
Argument of Perigee248.1886
Mean Anonmoly111.8341
Mean Motion16.35304962
Decay Rate0.05711489
L11 43590U 98067PE 20324.88139739 .05711489 12232-4 70418-3 0 9992
L22 43590 51.6106 192.2490 0007498 248.1886 111.8341 16.35304962130589



Live tracking and technical data element details for MAYA-1 (NORAD 43590). MAYA-1 can be tracked NOW for your location showing map with azimuth and elevation plus other details from your city location.







IsCatalogInMostPopularTable: catalog: 43590, numindb: 462
Update: records affected: 1



GetName: 43590 MAYA-1

Hit Count: updated at: Thu, 23 Jan 2025 16:38:30 GMT